RH
13 15 18 27 38 42 45 42 41 39 37 35 33 31 33 39 46 51 50 44 44 35 30 29 30 29 29 27 27 30 29 25 24 25 24 25 25 28 26 28 26 27 26 26 27 27 28 28 27
13 14 18 30 41 45 44 42 42 40 39 40 39 43 45 49 48 47 38 34 37 36 32 30 29 28 27 27 29 27 33 32 25 25 25 25 26 27 27 29 31 28 28 27 27 27 27 27 29
14 15 19 31 38 42 39 38 39 37 35 33 38 41 46 51 51 48 41 37 38 38 40 37 33 31 29 30 35 35 35 38 32 28 25 26 27 28 29 29 34 35 36 33 32 29 29 30 30
16 17 21 28 30 32 33 33 33 30 33 32 39 45 52 52 50 50 45 42 46 46 54 43 43 36 34 35 37 36 39 39 36 34 31 30 29 29 30 31 34 38 37 39 34 34 33 32 33
17 19 27 29 28 29 31 31 28 28 33 33 31 44 47 50 49 43 47 51 63 66 69 57 54 55 48 52 51 52 53 48 42 42 43 41 37 39 39 38 39 42 44 44 45 41 40 38 37
20 24 29 29 28 29 31 32 29 28 32 34 34 38 41 47 49 49 51 48 47 45 46 44 42 42 42 42 51 55 57 59 65 65 57 51 45 39 45 50 49 46 47 45 45 47 48 47 44
23 27 28 30 30 31 31 30 30 29 29 29 32 32 37 45 51 52 53 54 53 48 47 45 45 44 44 43 43 46 48 49 54 60 62 65 67 66 58 46 48 50 48 47 48 48 48 48 47
21 28 30 31 33 33 31 30 28 27 28 29 29 30 34 38 43 46 47 48 49 50 49 51 52 53 52 46 44 47 50 55 55 55 56 59 60 60 63 67 68 63 61 54 52 50 47 47 48
25 29 32 32 32 30 28 27 27 27 28 28 30 31 33 33 34 35 40 43 46 50 50 50 47 47 50 51 48 47 47 47 49 52 54 53 54 55 58 58 63 67 72 75 74 71 68 64 58
26 30 29 29 27 27 26 25 26 26 27 28 30 31 32 32 30 29 30 34 36 39 42 42 40 44 42 39 38 40 42 42 44 45 44 44 46 50 52 53 59 64 65 72 75 79 75 73 75
24 25 25 26 23 21 21 22 23 25 27 27 28 29 29 27 25 24 25 26 26 28 30 32 35 34 33 28 27 29 30 31 33 36 40 41 42 43 46 47 49 56 66 71 72 79 86 83 77
22 21 22 21 20 20 19 20 21 21 21 23 23 23 22 22 22 22 23 23 23 22 22 23 24 24 24 24 24 24 24 26 29 31 32 33 34 37 39 41 47 49 53 59 65 71 80 82 84
20 21 22 23 22 18 17 16 17 19 21 22 22 23 23 22 22 22 21 21 21 21 21 20 20 18 17 16 17 17 18 20 21 24 27 30 33 36 37 38 40 48 48 52 54 54 61 68 77
22 23 22 22 20 18 14 13 14 19 24 24 25 24 24 24 24 24 24 23 22 21 20 20 18 17 16 16 15 15 15 15 15 16 17 19 22 25 32 38 40 43 47 50 57 55 57 61 74
23 22 22 21 17 14 12 18 22 23 24 24 25 26 26 25 25 24 24 23 22 23 23 23 22 22 19 18 17 16 16 17 17 17 16 15 15 16 20 25 33 40 42 45 49 56 53 56 64
19 15 17 13 13 13 13 17 17 15 17 23 26 26 27 28 28 27 25 25 25 25 25 24 23 23 21 20 21 19 18 16 15 15 14 14 15 15 16 16 20 32 39 43 46 50 55 51 53
16 13 12 13 13 14 13 13 12 13 18 24 28 29 30 31 31 31 30 29 29 29 29 28 25 21 22 23 25 24 23 20 18 17 16 15 15 15 14 14 16 19 29 41 45 46 52 55 55
16 15 15 15 15 13 13 15 18 19 21 25 28 30 31 30 28 29 31 32 33 33 31 28 28 27 31 36 33 32 29 27 25 22 21 19 18 17 16 14 14 15 16 25 42 47 51 53 57
13 14 15 15 15 14 18 25 26 25 26 27 28 30 31 31 32 33 33 34 34 34 35 37 38 39 42 40 37 33 28 24 25 24 19 18 20 18 17 16 16 17 18 17 23 40 52 54 57
14 17 18 17 16 18 24 30 31 30 31 32 32 32 34 37 40 40 41 45 45 45 41 38 37 37 44 44 38 31 24 24 26 28 32 25 25 25 23 23 22 20 17 18 21 27 42 54 62
16 19 19 21 21 21 23 33 39 34 33 33 33 35 38 40 40 41 44 45 43 40 39 37 34 35 35 33 28 24 30 29 32 32 34 33 29 31 29 30 30 27 24 19 21 26 32 45 61
20 18 19 21 25 27 23 31 43 37 34 32 34 40 43 42 43 43 41 39 40 38 39 40 38 36 28 24 23 24 31 31 32 34 32 35 36 34 35 35 37 34 29 25 22 25 33 40 48
21 20 22 23 28 28 24 26 41 32 34 39 40 44 41 40 40 41 42 44 45 43 39 39 39 32 30 28 30 29 30 32 33 38 36 37 37 38 37 41 41 40 36 30 26 24 29 36 41
22 22 24 27 28 31 25 26 37 37 38 39 42 42 43 44 46 47 46 44 45 46 42 39 41 40 36 33 30 33 34 32 35 34 35 34 31 31 39 42 44 43 42 35 30 26 28 31 37
25 26 30 24 31 29 26 32 42 44 47 47 47 47 45 48 55 60 55 59 61 58 57 53 48 43 40 32 31 31 31 34 37 33 31 28 31 36 38 43 46 49 46 40 34 29 31 33 33
31 30 33 33 34 29 30 38 40 44 44 45 47 47 44 43 49 59 56 71 76 69 58 61 62 45 37 35 30 31 33 38 38 27 29 29 35 36 37 39 41 46 48 46 40 36 37 38 38
30 33 33 39 41 51 37 27 35 33 33 32 34 43 46 48 50 54 56 65 71 67 63 63 57 47 40 37 34 35 36 38 38 25 29 30 36 38 40 44 47 51 52 50 49 41 42 43 45
32 31 35 41 49 52 32 29 42 39 45 42 39 33 34 36 40 58 72 69 64 59 58 60 54 46 42 36 32 34 39 42 41 33 26 26 28 39 47 51 55 55 59 58 51 47 46 46 44
34 36 38 37 39 59 66 42 41 47 39 38 40 41 46 43 48 58 75 69 63 58 49 46 46 41 34 28 32 38 42 47 47 45 38 28 33 46 52 53 57 61 61 61 59 54 52 48 46
36 38 38 50 45 48 65 55 33 34 40 48 52 47 50 57 64 65 70 62 55 51 48 47 41 34 30 37 46 57 63 65 62 54 46 41 45 53 55 53 54 60 61 60 58 59 54 51 51